Le nostre stazioni meteo in Italia

Pubblicità
Il mio iltempo24.it
Luqa, Malta (16597): Temperatura & dewpoint: 15.06.2019 00:00:00 - 21.06.2019 00:00:00 (CEST)Luqa, Malta (16597): velocità del vento: 15.06.2019 00:00:00 - 21.06.2019 00:00:00 (CEST)Luqa, Malta (16597): direzione del vento: 15.06.2019 00:00:00 - 21.06.2019 00:00:00 (CEST)Luqa, Malta (16597): reduced air pressure: 15.06.2019 00:00:00 - 21.06.2019 00:00:00 (CEST)Luqa, Malta (16597): visibility: 15.06.2019 00:00:00 - 21.06.2019 00:00:00 (CEST)
Data & Tempo tt [°C] td [°C] ff [km/h] ff [kn] dd ppp [hPa] vv [km]
21.06.2019 00:00:00 23,0 17,0 5 3 NNE - 10
20.06.2019 23:00:00 23,3 16,2 5 3 NNO 1014,8 10
20.06.2019 22:00:00 24,0 17,0 8 4 ONO - 10
20.06.2019 21:00:00 25,0 14,0 5 3 NO - 10
20.06.2019 20:00:00 25,7 18,6 9 5 NNO 1013,9 10
20.06.2019 19:00:00 26,0 19,0 9 5 NE - 10
20.06.2019 18:00:00 28,0 19,0 15 8 ENE - 10
20.06.2019 17:00:00 28,3 18,0 8 4 NNE 1013,5 10
20.06.2019 16:00:00 28,0 17,0 9 5 NE - 10
20.06.2019 15:00:00 30,0 16,0 11 6 NE - 10
20.06.2019 14:00:00 30,3 18,4 15 8 NE 1013,9 10
20.06.2019 13:00:00 31,0 17,0 13 7 NNE - 10
20.06.2019 12:00:00 29,0 20,0 18 10 NNE - 10
20.06.2019 11:00:00 28,8 18,6 4 2 - 1014,0 10
20.06.2019 10:00:00 30,0 15,0 11 6 S - 10
20.06.2019 09:00:00 28,0 17,0 5 3 NO - 10
20.06.2019 08:00:00 24,9 17,5 8 4 ENE 1013,9 10
20.06.2019 07:00:00 24,0 18,0 2 1 - - 10
20.06.2019 06:00:00 20,0 17,0 4 2 O - 10
20.06.2019 05:00:00 20,7 17,1 8 4 OSO 1012,9 10
20.06.2019 04:00:00 21,0 17,0 9 5 OSO - 10
20.06.2019 03:00:00 21,0 17,0 9 5 O - 10
20.06.2019 02:00:00 20,9 16,5 8 4 O 1014,1 10
20.06.2019 01:00:00 21,0 16,0 4 2 SSO - 10
20.06.2019 00:00:00 21,0 15,0 9 5 OSO - 10
19.06.2019 23:00:00 21,2 15,6 0 0 N 1014,6 10
19.06.2019 22:00:00 22,0 17,0 11 6 NO - 10
19.06.2019 21:00:00 23,0 17,0 13 7 ONO - 10
19.06.2019 20:00:00 25,1 11,8 11 6 ONO 1013,3 10
19.06.2019 19:00:00 27,0 9,0 21 11 NO - 10
19.06.2019 18:00:00 28,0 11,0 16 9 ONO - 10
19.06.2019 17:00:00 29,4 11,0 13 7 ONO 1013,7 10
19.06.2019 16:00:00 29,0 11,0 16 9 O - 10
19.06.2019 15:00:00 30,0 13,0 16 9 O - 10
19.06.2019 14:00:00 29,2 17,8 18 10 OSO 1014,3 10
19.06.2019 13:00:00 29,0 19,0 13 7 OSO - 10
19.06.2019 12:00:00 29,0 18,0 11 6 ENE - 10
19.06.2019 11:00:00 29,1 18,8 11 6 NE 1014,3 10
19.06.2019 10:00:00 29,0 15,0 2 1 - - 10
19.06.2019 09:00:00 27,0 18,0 8 4 O - 10
19.06.2019 08:00:00 23,3 21,4 8 4 OSO 1014,3 9
19.06.2019 07:00:00 23,0 22,0 4 2 OSO - 6
19.06.2019 06:00:00 21,0 20,0 4 2 ONO - 5
19.06.2019 05:00:00 21,7 20,5 9 5 O 1013,4 7
19.06.2019 04:00:00 21,0 20,0 4 2 OSO - 10
19.06.2019 03:00:00 22,0 20,0 2 1 - - 10
19.06.2019 02:00:00 22,5 20,2 5 3 O 1014,0 10
19.06.2019 01:00:00 23,0 20,0 2 1 OSO - 10
19.06.2019 00:00:00 24,0 20,0 5 3 NE - 10
18.06.2019 23:00:00 24,3 20,6 9 5 NE 1015,0 10
18.06.2019 22:00:00 24,0 20,0 11 6 NNO - 10
18.06.2019 21:00:00 25,0 20,0 8 4 O - 10
18.06.2019 20:00:00 26,0 18,3 8 4 SSO 1013,7 10
18.06.2019 19:00:00 27,0 17,0 8 4 SO - 10
18.06.2019 18:00:00 29,0 15,0 9 5 E - 10
18.06.2019 17:00:00 29,4 14,8 11 6 E 1013,3 10
18.06.2019 16:00:00 30,0 14,0 16 9 SE - 10
18.06.2019 15:00:00 30,0 14,0 15 8 SE - 10
18.06.2019 14:00:00 30,5 14,8 16 9 SE 1013,7 10
18.06.2019 13:00:00 30,0 14,0 15 8 SE - 10
18.06.2019 12:00:00 30,0 15,0 13 7 SE - 10
18.06.2019 11:00:00 29,2 15,7 16 9 ESE 1013,4 10
18.06.2019 10:00:00 29,0 17,0 16 9 ESE - 10
18.06.2019 09:00:00 27,0 19,0 11 6 E - 10
18.06.2019 08:00:00 24,1 22,5 11 6 ENE 1012,8 10
18.06.2019 07:00:00 24,0 23,0 11 6 NE - 8
18.06.2019 06:00:00 23,0 21,0 9 5 N - 6
18.06.2019 05:00:00 22,5 19,3 9 5 N 1012,2 10
18.06.2019 04:00:00 23,0 20,0 5 3 N - 10
18.06.2019 03:00:00 23,0 21,0 11 6 OSO - 10
18.06.2019 02:00:00 23,5 20,9 8 4 NE 1011,9 10
18.06.2019 01:00:00 23,0 20,0 5 3 NE - 10
18.06.2019 00:00:00 24,0 20,0 5 3 E - 10
17.06.2019 23:00:00 23,6 20,0 8 4 SE 1012,3 10
17.06.2019 22:00:00 24,0 19,0 9 5 ESE - 10
17.06.2019 21:00:00 25,0 17,0 9 5 SSE - 10
17.06.2019 20:00:00 26,9 16,0 4 2 SSE 1012,0 10
17.06.2019 19:00:00 28,0 16,0 11 6 SSO - 10
17.06.2019 18:00:00 29,0 14,0 15 8 S - 10
17.06.2019 17:00:00 30,9 11,6 15 8 SE 1012,1 10
17.06.2019 16:00:00 31,0 13,0 8 4 SSE - 10
17.06.2019 15:00:00 30,0 15,0 15 8 ESE - 10
17.06.2019 14:00:00 30,7 14,2 13 7 ESE 1012,6 10
17.06.2019 13:00:00 31,0 14,0 15 8 ESE - 10
17.06.2019 12:00:00 30,0 15,0 18 10 ESE - 10
17.06.2019 11:00:00 29,3 16,8 9 5 E 1012,9 10
17.06.2019 10:00:00 28,0 18,0 15 8 NE - 10
17.06.2019 09:00:00 28,0 18,0 11 6 NNE - 10
17.06.2019 08:00:00 26,1 18,4 8 4 NE 1012,4 10
17.06.2019 07:00:00 25,0 17,0 4 2 SO - 10
17.06.2019 06:00:00 23,0 17,0 5 3 SSO - 10
17.06.2019 05:00:00 23,9 17,8 2 1 - 1012,0 10
17.06.2019 04:00:00 25,0 17,0 8 4 ENE - 10
17.06.2019 03:00:00 24,0 15,0 8 4 E - 10
17.06.2019 02:00:00 24,1 16,3 5 3 ESE 1012,5 10
17.06.2019 01:00:00 24,0 17,0 4 2 O - 10
17.06.2019 00:00:00 25,0 18,0 4 2 - - 10
16.06.2019 23:00:00 25,8 18,6 5 3 NNE 1013,1 10
16.06.2019 22:00:00 26,0 16,0 5 3 NE - 10
16.06.2019 21:00:00 27,0 15,0 5 3 NE - 10
16.06.2019 20:00:00 27,9 15,0 4 2 - 1012,6 10
16.06.2019 19:00:00 30,0 14,0 8 4 E - 10
16.06.2019 18:00:00 31,0 14,0 11 6 E - 10
16.06.2019 17:00:00 31,0 14,1 8 4 SE 1012,9 10
16.06.2019 16:00:00 31,0 14,0 15 8 SE - 10
16.06.2019 15:00:00 31,0 18,0 11 6 S - 10
16.06.2019 14:00:00 33,1 13,8 13 7 SSO 1013,3 10
16.06.2019 13:00:00 33,0 14,0 13 7 SSE - 10
16.06.2019 12:00:00 32,0 14,0 13 7 SSE - 10
16.06.2019 11:00:00 32,0 15,2 13 7 SE 1013,6 10
16.06.2019 10:00:00 30,0 16,0 8 4 E - 10
16.06.2019 09:00:00 30,0 17,0 13 7 E - 10
16.06.2019 08:00:00 26,5 18,2 4 2 - 1013,1 10
16.06.2019 07:00:00 25,0 18,0 5 3 NNE - 10
16.06.2019 06:00:00 23,0 17,0 2 1 - - 10
16.06.2019 05:00:00 24,7 17,0 5 3 SE 1012,3 10
16.06.2019 04:00:00 26,0 16,0 9 5 NNE - 10
16.06.2019 03:00:00 26,0 16,0 15 8 NNO - 10
16.06.2019 02:00:00 25,2 15,3 15 8 NNO 1013,4 10
16.06.2019 01:00:00 26,0 14,0 8 4 NO - 10
16.06.2019 00:00:00 27,0 12,0 9 5 NNO - 10
15.06.2019 23:00:00 25,9 12,8 8 4 O 1013,9 10
15.06.2019 22:00:00 26,0 13,0 8 4 NO - 10
15.06.2019 21:00:00 26,0 18,0 8 4 ONO - 10
15.06.2019 20:00:00 27,1 17,8 2 1 - 1013,2 10
15.06.2019 19:00:00 27,0 18,0 15 8 NNO - 10
15.06.2019 18:00:00 29,0 19,0 15 8 NE - 10
15.06.2019 17:00:00 31,0 14,9 4 2 - 1014,4 10
15.06.2019 16:00:00 30,0 16,0 13 7 ESE - 10
15.06.2019 15:00:00 33,0 13,0 16 9 N - 10
15.06.2019 14:00:00 32,3 16,5 13 7 E 1015,1 10
15.06.2019 13:00:00 30,0 17,0 16 9 O - 10
15.06.2019 12:00:00 30,0 18,0 16 9 SO - 10
15.06.2019 11:00:00 29,7 17,5 8 4 SO 1015,6 10
15.06.2019 10:00:00 28,0 19,0 13 7 NE - 10
15.06.2019 09:00:00 28,0 19,0 11 6 N - 10
15.06.2019 08:00:00 24,9 18,4 11 6 N 1014,7 10
15.06.2019 07:00:00 24,0 17,0 4 2 NNE - 10
15.06.2019 06:00:00 23,0 16,0 4 2 SE - 10
15.06.2019 05:00:00 23,6 17,5 9 5 SO 1013,9 10
15.06.2019 04:00:00 23,0 18,0 8 4 NO - 10
15.06.2019 03:00:00 23,0 20,0 11 6 NNE - 10
15.06.2019 02:00:00 23,4 18,8 8 4 ENE 1016,4 10
15.06.2019 01:00:00 24,0 18,0 8 4 NNE - 10
15.06.2019 00:00:00 23,0 19,0 16 9 NNE - 10

tt = Temperatura
td = dewpoint
ff = velocità del vento
dd = direzione del vento
ppp = reduced air pressure
vv = visibility

Stazioni seguenti

WeatherPro
AMSI
MeteoEarth